Retour au catalogue

STARLINK-31774

ActifCommunicationsVLEO
NORAD 59622·PAYLOAD·🇺🇸 United States

Lancé Apr 28, 2024 depuis Cape Canaveral Space Force Station

Loading…

Prochains Passages (prochaines 24 heures)

TLE

FraisSource: CelesTrak SupGP

Époque: Sep 15, 2026, 02:59 UTC

1 59622C 24080X   26258.12479167 -.00024453  00000+0 -88582-3 0  2589
2 59622  43.0044  44.7397 0001549 273.8348  58.2716 15.27586052    10

Suivez STARLINK-31774 en temps réel avec AllMySat

Download on the App Store